Location: Newark
(46.9000°N, 28.3500°E)
Time: 22:02:02
(UTC+00:00)

Vanguard 1 Rocket - Pass Details

Date: 03 September 2019
Orbit: 652 x 4225 km, 34.3° (Epoch: 15 September)

Event Time Altitude Azimuth Distance (km) Brightness Sun altitude
Rises 23:36:47 0° 251° (WSW) 3,409 - -32.1°
Reaches altitude 10° 23:40:16 10° 231° (SW) 2,202 - -31.8°
Maximum altitude 23:43:19 17° 190° (S) 1,656 - -31.6°
Drops below altitude 10° 23:46:12 10° 148° (SSE) 2,050 - -31.3°
Sets 23:49:15 0° 127° (SE) 3,065 - -31.1°
